This is the latest recevied weather packets stored in our database for station/object WP3OF-5. If no packets are shown the sender has not sent any weather packets the latest 1 day(s).
| Time | Temp. | Humidity | Pressure | Rain* | Wind** | Luminosity | Snow |
|---|---|---|---|---|---|---|---|
| 1777997161 | 32.22° C | 56% | 1017.7 hPa | 0 mm | 0.89 m/s, 32° | - | - |
| 1777996858 | 31.11° C | 55% | 1018 hPa | 0 mm | 0.89 m/s, 77° | - | - |
| 1777996554 | 31.67° C | 56% | 1017.8 hPa | 0 mm | 0 m/s | - | - |
| 1777996251 | 31.11° C | 59% | 1017.9 hPa | 0 mm | 0.45 m/s, 87° | - | - |
| 1777995947 | 31.11° C | 55% | 1017.5 hPa | 0 mm | 0.89 m/s, 54° | - | - |
| 1777995643 | 31.11° C | 57% | 1017.7 hPa | 0 mm | 0 m/s | - | - |
| 1777995341 | 31.67° C | 55% | 1017.8 hPa | 0 mm | 0.89 m/s, 78° | - | - |
| 1777995038 | 31.67° C | 55% | 1017.8 hPa | 0 mm | 1.34 m/s, 78° | - | - |
| 1777994734 | 31.67° C | 57% | 1017.4 hPa | 0 mm | 0 m/s | - | - |
| 1777994430 | 31.67° C | 59% | 1017.7 hPa | 0 mm | 0.45 m/s, 74° | - | - |
| 1777994131 | 31.11° C | 56% | 1017.5 hPa | 0 mm | 0.45 m/s, 91° | - | - |
| 1777993828 | 31.11° C | 58% | 1017.6 hPa | 0 mm | 1.34 m/s, 86° | - | - |
| 1777993524 | 30.56° C | 58% | 1017.6 hPa | 0 mm | 1.34 m/s, 134° | - | - |
| 1777993221 | 30.56° C | 60% | 1017.5 hPa | 0 mm | 0.45 m/s, 112° | - | - |
| 1777992917 | 30° C | 62% | 1017.8 hPa | 0 mm | 0.45 m/s, 63° | - | - |
| 1777992615 | 30.56° C | 60% | 1017.8 hPa | 0 mm | 1.34 m/s, 63° | - | - |
| 1777992313 | 31.11° C | 58% | 1017.7 hPa | 0 mm | 0.45 m/s, 69° | - | - |
| 1777992010 | 31.11° C | 58% | 1017.6 hPa | 0 mm | 0.45 m/s, 29° | - | - |
| 1777991708 | 30.56° C | 58% | 1017.6 hPa | 0 mm | 1.79 m/s, 14° | - | - |
| 1777991405 | 30.56° C | 60% | 1017.7 hPa | 0 mm | 0.45 m/s, 75° | - | - |
| 1777991102 | 30.56° C | 59% | 1017.7 hPa | 0 mm | 0.45 m/s, 37° | - | - |
| 1777990799 | 30.56° C | 57% | 1017.8 hPa | 0 mm | 0.89 m/s, 250° | - | - |
| 1777990496 | 29.44° C | 62% | 1017.9 hPa | 0 mm | 1.34 m/s, 220° | - | - |
| 1777990193 | 29.44° C | 63% | 1018 hPa | 0 mm | 0.89 m/s, 85° | - | - |
| 1777989889 | 29.44° C | 62% | 1017.9 hPa | 0 mm | 0 m/s | - | - |
* Rain latest hour (hover to see other rain measurements)
** Current wind speed in m/s (hover to see current wind gust speed)